STARLINK-32114, 60287

Orbit data source: Space-Track

STARLINK-32114, 60287 is a payload satellite in LEO that was launched on Sun, 28 Jul 2024 UTC via an FALCON 9 launch vehicle from the Air Force Eastern Test Range (AFETR). Payload-class satellites include a variety of spacecraft equipped with specific instruments for various scientific and technological missions. These include communications satellites like Starlink; space stations such as the ISS; scientific satellites like the Hubble; Earth observation satellites from companies like Planet Labs, Umbra, and HawkEye 360; GPS; miniature CubeSats for education and research; and military/defense satellites.

Loading next visibility...
Identifier
60287, 2024-132K
Orbit
LEO
Last TLE update
17 hours ago
Origin
Manufacturer
SpaceX/Seattle
Mission
Operational spacecraft
Bus & Motor
STARLINK V2M, Unknown motor
Mass
730 kg wet, ~700 kg dry
Launch date (UTC)
2024-07-28 (10 months ago)
Launch vehicle
FALCON 9
Launch site
Air Force Eastern Test Range (AFETR)
Object type
Payload
Rocket body
Debris
Shape & HBR
Unknown
Radar Cross Section
Large (>1 m²)

Expand to show TLE details & history

TLE from 17 hours ago
0 STARLINK-32114
1 60287U 24132K   25139.95387995  .00000136  00000-0  16728-4 0  9998
2 60287  53.1609 337.1190 0001177  81.8446 278.2689 15.30190664 46579
Epoch: 2025-05-19T22:53Z
TLE epoch observation values (Epoch: 2025-05-19T22:53:35.227Z)
Latitude
0.00003°
Longitude
115.86315°
Altitude
476.027 km
Speed
7.629 km/s
True Right ascension
22h 28m 28s
True Declination
0° 00' 00"
Sunlit
Object was in daylight at epoch
Visualization orbit readout
Latitude
-31.68526°
Longitude
-39.97863°
Altitude
485.628 km
Speed
7.622 km/s
Apparent Right ascension
12h 14m 22s
Apparent Declination
-35° 30' 04"
Sunlit
Object is in full shadow
Visualization observer readout
Local Sidereal Time
00:25:27
Azimuth
27.23° NE
Elevation
-85.073°
Doppler factor
1
Orbital elements
Apogee altitude
476.306 km
Perigee altitude
474.693 km
Semi-major axis
6,853.636 km
Eccentricity
0.00012
Inclination
53.1609°
RAAN
337.119°
Arg. of periapsis
81.8446°
True anomaly
Unknown
Mean anomaly
278.2689°
Eccentric anomaly
Unknown
Mean motion
3.82527 °/min
Orbital period
94.11 mins
BSTAR
0.000016728
Loading maneuver chart data...
Loading SW <> Apogee altitude chart data...
Loading historical data...
Loading historical data...
Loading historical data...
Loading historical data...
Loading historical data...
Loading historical data...
Loading historical data...

STARLINK-32114 Visibility forecast

Observer location: undefined°, undefined°

Span
Click to sort rows by Start time (UTC) header in descending order
Start Az.
Max El. time (UTC)
Max El. Az.
Max El.
End time (UTC)
End Az.
6 mins2025-05-20 16:19:45.277Z247.427° WSW2025-05-20 16:22:45.277Z300.304° NW36.932°2025-05-20 16:25:45.277Z36.934° NE
4 mins2025-05-20 21:18:45.277Z356.772° N2025-05-20 21:19:45.277Z19.878° NNE20.72°2025-05-20 21:22:45.277Z77.581° E
5 mins2025-05-20 22:55:45.277Z299.013° NW2025-05-20 22:57:45.277Z256.248° W39.598°2025-05-20 23:00:45.277Z146.789° SSE
|